Regional Weather Roundup
Issued by NWS Newport/Morehead, NC

Current Version | Previous Version | Text Only | Print | Product List | Glossary Off
Versions: 1 2 3 4 5 6 7 8 9 10 11 12 13 14 15 16 17 18 19 20 21 22 23 24 25 26 27 28 29 30 31 32 33 34 35 36 37 38 39 40 41 42 43 44 45 46 47 48 49 50
000 ASUS42 KMHX 280413 RWRMHX WEATHER ROUNDUP FOR EASTERN NORTH CAROLINA NATIONAL WEATHER SERVICE NEWPORT/MOREHEAD CITY NC 1200 AM EDT THU APR 28 2016 NOTE: "FAIR" INDICATES FEW OR NO CLOUDS BELOW 12,000 FEET WITH NO SIGNIFICANT WEATHER AND/OR OBSTRUCTIONS TO VISIBILITY NCZ015>017-031-032-045>047-102-103-280500- NORTH COAST CITY SKY/WX TMP DP RH WIND PRES REMARKS EDENTON DRIZZLE 64 64 100 SE3 29.91R ELIZABETH CITY LGT RAIN 59 58 96 E7 29.92R KITTY HAWK CLOUDY 56 55 95 CALM 29.91S MANTEO NOT AVBL $$ NCZ045>047-081-094-103-104-280500- CENTRAL COAST CITY SKY/WX TMP DP RH WIND PRES REMARKS FRISCO CLEAR 69 67 93 SW13 29.91R SWANQUARTER NOT AVBL $$ NCZ095-097-098-100-101-280500- SOUTHERN COAST CITY SKY/WX TMP DP RH WIND PRES REMARKS BEAUFORT CLEAR 68 66 93 SW10 29.91S CEDAR ISLAND NOT AVBL JACKSONVILLE CLEAR 69 60 73 VRB6 29.89S PINEY ISLAND CLEAR N/A N/A N/A SW15G24 29.90R WILMINGTON CLEAR 70 64 81 SW13 29.90F $$ NCZ011>013-027>030-043-044-078>080-089-090>093-098-280500- COASTAL PLAIN CITY SKY/WX TMP DP RH WIND PRES REMARKS AHOSKIE LGT RAIN 64 63 97 S5 29.91R CLINTON CLEAR 71 62 73 S5 29.89R ELIZABETHTOWN CLEAR 70 59 67 S6 29.90R GOLDSBORO CLEAR 70 63 78 S8 29.85S GREENVILLE CLOUDY 66 66 100 SE3 29.93R HAVELOCK CLEAR 70 64 81 SW13 29.91R KENANSVILLE CLEAR 70 56 62 CALM 29.90R KINSTON CLOUDY 73 58 60 S8 29.89S NEW BERN CLEAR 69 59 70 SW8 29.90R RICHLANDS CLEAR 68 61 78 SW7 29.90S ROCKY MOUNT CLOUDY 66 66 100 SE5 29.88R WASHINGTON CLOUDY 67 60 79 E6 29.90F WHITEVILLE NOT AVBL $$ AMZ130-135-150-152-154-156-158-170-250-252-270-ANZ085-086-088-633-658-670-280500- MARINE OBSERVATIONS STATION/POSITION TIME TEMP WIND PRES WAVE SWELL AIR SEA DIR/SP/G HT/PER HT/PER (UTC) (F) (DEG/KT/KT) (MB) (FT/S) (FT/S) CHESAPEAKE LIGHT 0400 53 50/ 14/ 15 1013.2 64 E VA BEACH 0350 54 53 40/ 8/ 10 1012.0 4/ 6 3/ 6 DUCK 0300 56 63 1012.2 2 E DUCK 0311 56 N/A 4/ 6 OREGON INLET 0300 71 1012.9 13E OREGON INLT 0400 58 N/A 4/ 6 3/ 6 HATTERAS CG 0300 70 68 1012.1 DIAMOND BUOY 0350 72 71 220/ 14/ 16 1012.8 4/ 5 2/ 7 CAPE LOOKOUT 0400 69 220/ 10/ 13 1012.6 BEAUFORT LAB 0300 68 67 1011.8 30 SE NEW RVR IN 0325 67 N/A 4/ 5 27 SE WRIGHTSVLE 0308 71 69 230/ 12/ 14 1016.1 5 SE WRIGHTSVLE 0308 69 66 230/ 12/ 16 1013.4 225 S CAPE HAT 0350 71 71 170/ 10/ 12 1016.3 2/11 2/11 41 SE CHARLESTON 0350 74 73 190/ 12/ 14 1013.3 3/ 4 2/ 8 $$

USA.gov is the U.S. government's official web portal to all federal, state and local government web resources and services.